Regional Weather Roundup
Issued by NWS

Home | Current Version | Previous Version | Text Only | Print | Product List | Glossary Off
Versions: 1 2 3 4 5 6 7 8 9 10 11 12 13 14 15 16 17 18 19 20 21 22 23 24 25 26 27 28 29 30 31 32 33 34 35 36 37 38 39 40 41 42 43 44 45 46 47 48 49 50

000
ASUS43 KMKX 270200
RWRWI

WISCONSIN REGIONAL WEATHER ROUNDUP
NATIONAL WEATHER SERVICE MILWAUKEE/SULLIVAN WI
900 PM CDT SAT MAY 26 2018

NOTE: "FAIR" INDICATES FEW OR NO CLOUDS BELOW 12,000 FEET WITH NO
SIGNIFICANT WEATHER AND/OR OBSTRUCTIONS TO VISIBILITY.

WIZ001-002-006>008-014>016-023>028-270300-
NORTHWEST WISCONSIN

CITY           SKY/WX    TMP DP  RH WIND       PRES   REMARKS
SUPERIOR ARPT  CLOUDY    48  48  98 E6        29.76R
ASHLAND        FAIR      57  54  89 N3        29.74R
HAYWARD        FAIR      72  58  61 CALM      29.72R
SIREN          FAIR      76  52  42 CALM      29.72R
CUMBERLAND     FAIR      81  46  30 W3        29.73R HX  80
RICE LAKE      FAIR      82  55  38 W3        29.73R HX  82
CHETEK         MOCLDY    78  60  53 NW3       29.72R HX  80
LADYSMITH      FAIR      76  60  56 MISG      29.74R
EAU CLAIRE     NOT AVBL
MENOMONIE      FAIR      82  57  41 SW5       29.71R HX  82
NEW RICHMOND   FAIR      80  57  45 CALM      29.72R HX  81
OSCEOLA        FAIR      83  50  31 CALM      29.74R HX  81
$$

WIZ003>005-009-010-017-018-270300-
NORTH CENTRAL WISCONSIN

CITY           SKY/WX    TMP DP  RH WIND       PRES   REMARKS
MANITOWISH WTR FAIR      74  55  51 CALM      29.73R
ARBOR VITAE    FAIR      77  58  52 CALM      29.73R
WOODRUFF       FAIR      77  58  52 CALM      29.73R
RHINELANDER    FAIR      72  61  68 W3        29.75R
EAGLE RIVER    FAIR      70  57  63 SE5       29.75R
LAND O LAKES   FAIR      69  59  70 CALM      29.78R
PHILLIPS       MOCLDY    73  58  59 CALM      29.73R
TOMAHAWK       FAIR      71  57  60 CALM      29.74R
MEDFORD        FAIR      80  55  42 CALM      29.74S HX  80
MERRILL        FAIR      74  60  61 CALM      29.74R
$$

WIZ029-030-035-036-043>047-270300-
CENTRAL WISCONSIN

CITY           SKY/WX    TMP DP  RH WIND       PRES   REMARKS
WAUSAU         NOT AVBL
MOSINEE        PTCLDY    79  57  47 SW3       29.75R HX  80
MARSHFIELD     FAIR      79  61  53 SW5       29.74R HX  80
STEVENS POINT  FAIR      75  60  59 CALM      29.74R
WAUPACA        FAIR      80  59  49 CALM      29.72R HX  81
WAUTOMA        FAIR      78  61  55 SW3       29.74R HX  80
WISC RAPIDS    FAIR      76  59  55 S3        29.74R
CAMP DOUGLAS   NOT AVBL
$$

WIZ011>013-019>022-031-037>040-048>050-270300-
NORTHEAST WISCONSIN

CITY           SKY/WX    TMP DP  RH WIND       PRES   REMARKS
ANTIGO         FAIR      76  57  51 W5        29.75R
SHAWANO        MOCLDY    77  61  57 E14G22    29.73R
OCONTO         FAIR      64  62  91 SE16      29.73S
STURGEON BAY   TSTM      66  59  78 SE6       29.79R
GREEN BAY      MOCLDY    83  58  42 CALM      29.73R HX  83
MANITOWOC      NOT AVBL
APPLETON       PTCLDY    79  55  44 SW6       29.72R
CLINTONVILLE   FAIR      83  56  40 CALM      29.71R HX  82
OSHKOSH        FAIR      79  62  56 SW5       29.73R HX  80
$$

WIZ032>034-041-042-053>061-270300-
SOUTHWEST WISCONSIN

CITY           SKY/WX    TMP DP  RH WIND       PRES   REMARKS
LA CROSSE      FAIR      82  66  58 S6        29.71R HX  84
SPARTA         FAIR      78  64  60 CALM      29.74R HX  80
VIROQUA        FAIR      82  63  53 S3        29.77S HX  83
BOSCOBEL       FAIR      75  70  84 CALM      29.74R
PRAIRIE DU CHI FAIR      80  66  63 CALM      29.73S HX  82
PLATTEVILLE    FAIR      82  66  56 CALM      29.77S HX  84
$$

WIZ056-057-062-063-064-067-068-270300-
SOUTH CENTRAL WISCONSIN

CITY           SKY/WX    TMP DP  RH WIND       PRES   REMARKS
REEDSBURG      FAIR      79  65  61 CALM      29.75R HX  81
BARABOO/DELLS  FAIR      79  61  52 SW5       29.75S HX  80
LONE ROCK      FAIR      74  68  81 CALM      29.75R
MINERAL POINT  FAIR      82  63  51 SW3       29.78R HX  83
MADISON        FAIR      78  64  61 VRB5      29.75R HX  80
MIDDLETON      FAIR      79  63  57 CALM      29.76R HX  80
WATERTOWN      FAIR      77  63  61 S3        29.75R
MONROE         FAIR      82  57  42 W5        29.77S HX  82
JANESVILLE     CLEAR     81  61  50 CALM      29.76R HX  81
$$

WIZ051-052-058>065-066-070>072-270300-
SOUTHEAST WISCONSIN

CITY           SKY/WX    TMP DP  RH WIND       PRES   REMARKS
MILWAUKEE      FAIR      75  61  61 SE5       29.77R
WAUKESHA       CLEAR     79  57  47 S5        29.78R HX  80
MILWAUKEE/TIMM CLEAR     79  57  47 S6        29.77R HX  80
RACINE         FAIR      72  58  61 S6        29.79R
BURLINGTON     FAIR      75  62  64 E3        29.77R
KENOSHA        FAIR      74  59  59 SE3       29.77R
FOND DU LAC    FAIR      79  60  52 S6        29.74R HX  80
SHEBOYGAN      FAIR      70  60  70 S6        29.75R
WEST BEND      FAIR      77  61  57 S5        29.76R
JUNEAU         FAIR      80  60  49 CALM      29.76R HX  81
$$

LSZ147-162-270300-
LAKE SUPERIOR

STATION/POSITION TIME  TEMP    WIND        PRES    WAVE
                       AIR SEA DIR/SP/G            HT/PER
                 (UTC) (F)     (DEG/KT/KT) (MB)    (FT/S)
W MID LAKE BUOY  0050   41 36   80/ 10/ 10 1006.2F   1
DEVILS ISLAND    0100   43      10/  7/  9 1007.6R
SAXON HARBOR     0140   50     320/  3/  5 1006.8R
$$

LMZ867-665-643>646-270300-
LAKE MICHIGAN

STATION/POSITION TIME  TEMP    WIND        PRES    WAVE
                       AIR SEA DIR/SP/G            HT/PER
                 (UTC) (F)     (DEG/KT/KT) (MB)    (FT/S)
N MID LAKE BUOY  0140   47 38  180/  8/ 12 1007.2F
NORTHPORT PIER   0140   56     160/  2/  6 1007.5F
KEWAUNEE LAKESHO 0130   61     100/  7/ 17 1007.3R
SHEBOYGAN LAKESH 0100   62     170/ 14/ 15 1006.7R
PORT WASHINGTON  0130   63     200/  6/  8 1008.5R
ATWATER BUOY     0107   58 53  190/  8/  8 1007.9    1/ 2
MILWAUKEE LAKESH 0130          170/  4/  5   N/A
S MID LAKE BUOY  0050   59 41  160/  8/  8 1008.0R   0
KENOSHA   LAKESH 0100   70                 1007.5
$$

TC  - TEMPERATURE IN CELSIUS
VSB - VISIBILITY IN STATUTE MILES
WCI - WIND CHILL INDEX
HX  - HEAT INDEX





USA.gov is the U.S. government's official web portal to all federal, state and local government web resources and services.